星链-2629 (STARLINK-2629 )

导读 | 豆包AI

STARLINK-2629是美国SpaceX公司星链(Starlink)卫星互联网项目中的一颗低轨通信卫星,于2021年5月26日发射升空。作为星链星座的组成部分,它为全球偏远地区提供低延迟高速宽带互联网服务,搭载霍尔推进器,具备自主避撞能力,寿命末期会主动离轨坠入大气层焚毁,避免产生太空垃圾。星链计划计划最终部署数万颗卫星,构建覆盖全球的卫星通信网络,目前已在全球六十多个国家和地区提供服务,同时也引发了对天文观测和太空安全的讨论。

Basic Information
目录编号:
48686
目录名称:
STARLINK-2629
国际标识:
2021-044BA
轨道中心:
EARTH
卫星名称:
星链-2629
卫星全名:
星链-2629 (STARLINK-2629 )
卫星状态:
在轨 (已飞行1800 天)
发射日期:
2021-05-26 UTC
国别 :
美国 (US)
星等 :
--
Orbit Information
数据来源 国际轨道数据 AOE轨道数据
星历时间 2026-04-30T12:46:39+0800
11小时前
查看轨道信息
2026-04-25T07:00:00+0800
5天前
查看轨道信息
半长轴 6848.859km 6848.892km
偏心率 0.0001298 0.0001223
轨道倾角 53.161° 53.158°
近地点辐角 91.233° 56.510°
升交点赤经 195.910° 220.310°
平近点角 268.882° 189.418°
近地点 469.833km 469.917km
远地点 471.611km 471.593km
周期 94.013分钟 94.013分钟
每日圈数 15.317062 15.316951
Detailed Information
固有亮度:
5
最大亮度:
2.5
卫星平台:
Starlink v1.5
覆盖范围:
全球
运营商:
太空探索技术公司
运营商所在国:
美国
制造商(研发单位):
太空探索技术公司
制造商所在国:
美国
使用方式:
暂无
Satellite Introduction
星链(Starlink)计划是由太空探索技术公司(SpaceX)提出的一个巨型低轨卫星互联网星座项目,计划在2019年至2024年间在太空搭建由约1.2万颗卫星组成的“星链”网络,其中1584颗将部署在地球上空550千米处的近地轨道,并从2020年开始工作。该卫星仍在工作。
2D Orbit Map
3D Orbit Map
Orbit Altitude Analysis Chart
Orbit Inclination Analysis Chart
Orbit Comprehensive Analysis Chart
View Comprehensive Chart